This is the latest recevied weather packets stored in our database for station/object KN6ETB-1. If no packets are shown the sender has not sent any weather packets the latest 1 day(s).
| Time | Temp. | Humidity | Pressure | Rain* | Wind** | Luminosity | Snow |
|---|---|---|---|---|---|---|---|
| 1777992866 | 12.78° C | 93% | 1011.7 hPa | 0 mm | 0 m/s | 61 W/m² | - |
| 1777992564 | 12.78° C | 93% | 1011.8 hPa | 0 mm | 0.45 m/s, 203° | 43 W/m² | - |
| 1777992262 | 12.78° C | 93% | 1011.7 hPa | 0 mm | 0.45 m/s, 197° | 31 W/m² | - |
| 1777991959 | 12.78° C | 93% | 1011.7 hPa | 0 mm | 0.45 m/s, 209° | 28 W/m² | - |
| 1777991656 | 12.22° C | 93% | 1011.6 hPa | 0 mm | 0.45 m/s, 217° | 31 W/m² | - |
| 1777991353 | 12.22° C | 93% | 1011.4 hPa | 0 mm | 0 m/s | 28 W/m² | - |
| 1777991050 | 12.22° C | 94% | 1011.6 hPa | 0 mm | 0 m/s | 29 W/m² | - |
| 1777990747 | 12.22° C | 94% | 1011.6 hPa | 0 mm | 0.45 m/s, 218° | 32 W/m² | - |
| 1777990445 | 12.22° C | 94% | 1011.4 hPa | 0 mm | 0.45 m/s, 209° | 27 W/m² | - |
| 1777990141 | 12.22° C | 94% | 1011.3 hPa | 0 mm | 0.89 m/s, 204° | 24 W/m² | - |
| 1777989838 | 12.22° C | 94% | 1011.4 hPa | 0 mm | 0.89 m/s, 209° | 20 W/m² | - |
| 1777989535 | 12.22° C | 94% | 1011.2 hPa | 0 mm | 0.45 m/s, 216° | 14 W/m² | - |
| 1777989231 | 11.67° C | 94% | 1011.2 hPa | 0 mm | 0.89 m/s, 235° | 11 W/m² | - |
| 1777988927 | 11.67° C | 94% | 1011.3 hPa | 0 mm | 0.45 m/s, 233° | 8 W/m² | - |
| 1777988624 | 11.67° C | 95% | 1011 hPa | 0 mm | 1.34 m/s, 246° | 9 W/m² | - |
| 1777988321 | 11.67° C | 95% | 1011.1 hPa | 0 mm | 0.45 m/s, 217° | 8 W/m² | - |
| 1777988018 | 11.67° C | 95% | 1011.1 hPa | 0 mm | 0.45 m/s, 212° | 5 W/m² | - |
| 1777987713 | 11.67° C | 95% | 1011.2 hPa | 0 mm | 0.89 m/s, 251° | 3 W/m² | - |
| 1777987411 | 11.67° C | 95% | 1011.2 hPa | 0 mm | 0.45 m/s, 231° | 2 W/m² | - |
| 1777987108 | 11.67° C | 95% | 1011.1 hPa | 0 mm | 1.34 m/s, 227° | 1 W/m² | - |
| 1777986806 | 11.67° C | 95% | 1011.1 hPa | 0 mm | 1.79 m/s, 211° | 0 W/m² | - |
| 1777986503 | 11.67° C | 95% | 1010.8 hPa | 0 mm | 1.34 m/s, 196° | 0 W/m² | - |
| 1777986201 | 11.67° C | 95% | 1011 hPa | 0 mm | 0.89 m/s, 220° | 0 W/m² | - |
| 1777985898 | 11.67° C | 95% | 1010.8 hPa | 0 mm | 1.34 m/s, 226° | 0 W/m² | - |
| 1777985595 | 11.67° C | 96% | 1011 hPa | 0 mm | 0.89 m/s, 228° | 0 W/m² | - |
* Rain latest hour (hover to see other rain measurements)
** Current wind speed in m/s (hover to see current wind gust speed)